St. Joseph, KS

6:51 PM CDT on September 20, 2019 (GMT -0500)
Rosecrans Memorial

Weather History for KSTJ - July, 2019

Change the Weather History Date:

Thursday, July 11, 2019

  Actual Average Record
Temperature  
Mean Temperature 76 °F 77 °F  
Max Temperature 87 °F 87 °F 104 °F (1954)
Min Temperature 65 °F 67 °F 48 °F (1975)
Degree Days  
Heating Degree Days 0 0  
Month to date heating degree days 0 0  
Since 1 June heating degree days 1 8  
Since 1 July heating degree days 0 0  
Cooling Degree Days 11 12  
Month to date cooling degree days 166 130  
Year to date cooling degree days 560 510  
Since 1 June cooling degree days 459 397  
Growing Degree Days 25 (Base 50)    
Moisture  
Dew Point 63 °F    
Average Humidity 69    
Maximum Humidity 90    
Minimum Humidity 48    
Precipitation  
Precipitation 0.00 in 0.17 in 2.93 in (1971)
Month to date precipitation 0.22 1.63  
Year to date precipitation 21.49 18.76  
Sea Level Pressure  
Sea Level Pressure 30.03 in    
Wind  
Wind Speed 7 mph (North)    
Max Wind Speed 15 mph    
Max Gust Speed 23 mph    
Visibility 10 miles    
Events      
T = Trace of Precipitation, MM = Missing Value Source: NWS Daily Summary

Daily Weather History Graph

Daily Weather History Graph

Search for Another Location

Airport or City:

Astronomy

Jul. 11, 2019 Rise Set
Actual Time 6:01 AM CDT 8:48 PM CDT
Civil Twilight 5:29 AM CDT 9:20 PM CDT
Nautical Twilight 4:48 AM CDT 10:00 PM CDT
Astronomical Twilight 4:02 AM CDT 10:46 PM CDT
Moon 4:03 PM CDT (7/11) 2:11 AM CDT (7/11)
Length of Visible Light 15h 51m
Length of Day
14h 47m
Waxing Gibbous, 74% of the Moon is Illuminated
Jul 11
Waxing Gibbous
Jul 16
Full
Jul 24
Last Quarter
Jul 31
New
Aug 7
First Quarter

Hourly Weather History & Observations

Time (CDT) Temp. Heat Index Dew Point Humidity Pressure Visibility Wind Dir Wind Speed Gust Speed Precip Events Conditions
12:53 AM 69.1 °F - 61.0 °F 75% 30.07 in 10.0 mi Calm Calm - N/A   Clear
1:53 AM 69.1 °F - 62.1 °F 78% 30.06 in 10.0 mi Calm Calm - N/A   Clear
2:53 AM 68.0 °F - 62.1 °F 81% 30.05 in 10.0 mi Calm Calm - N/A   Clear
3:53 AM 68.0 °F - 62.1 °F 81% 30.05 in 10.0 mi North 3.5 mph - N/A   Clear
4:53 AM 66.0 °F - 61.0 °F 84% 30.06 in 10.0 mi NW 3.5 mph - N/A   Clear
5:53 AM 66.0 °F - 62.1 °F 87% 30.06 in 10.0 mi North 5.8 mph - N/A   Clear
6:53 AM 68.0 °F - 63.0 °F 84% 30.07 in 10.0 mi North 5.8 mph - N/A   Clear
7:53 AM 71.1 °F - 63.0 °F 75% 30.07 in 10.0 mi NNW 9.2 mph - N/A   Clear
8:53 AM 73.9 °F - 63.0 °F 68% 30.09 in 10.0 mi North 9.2 mph - N/A   Clear
9:53 AM 77.0 °F - 63.0 °F 62% 30.08 in 10.0 mi North 10.4 mph - N/A   Clear
10:53 AM 79.0 °F - 62.1 °F 56% 30.07 in 10.0 mi NNW 10.4 mph - N/A   Clear
11:53 AM 81.0 °F 81.9 °F 62.1 °F 52% 30.06 in 10.0 mi North 11.5 mph - N/A   Clear
12:53 PM 82.0 °F 83.0 °F 62.1 °F 51% 30.04 in 10.0 mi NNW 10.4 mph - N/A   Clear
1:53 PM 84.0 °F 84.9 °F 63.0 °F 49% 30.04 in 10.0 mi North 9.2 mph - N/A   Partly Cloudy
2:53 PM 84.9 °F 85.4 °F 62.1 °F 46% 30.01 in 10.0 mi North 11.5 mph 20.7 mph N/A   Partly Cloudy
3:53 PM 84.9 °F 85.9 °F 63.0 °F 48% 30.00 in 10.0 mi North 11.5 mph 23.0 mph N/A   Clear
4:53 PM 84.0 °F 85.4 °F 64.0 °F 51% 29.99 in 10.0 mi NNE 10.4 mph - N/A   Partly Cloudy
5:53 PM 84.0 °F 84.9 °F 63.0 °F 49% 29.98 in 10.0 mi NNE 10.4 mph - N/A   Partly Cloudy
6:53 PM 84.0 °F 84.9 °F 63.0 °F 49% 29.98 in 10.0 mi NNE 8.1 mph - N/A   Clear
7:46 PM 82.0 °F 83.1 °F 63.0 °F 52% 30.00 in 10.0 mi NE 6.9 mph - N/A   Partly Cloudy
7:53 PM 81.0 °F 82.5 °F 64.0 °F 56% 29.97 in 10.0 mi NE 6.9 mph - N/A   Partly Cloudy
9:53 PM 73.0 °F - 66.0 °F 79% 29.97 in 10.0 mi North 4.6 mph - N/A   Clear
10:53 PM 72.0 °F - 66.0 °F 81% 29.97 in 10.0 mi Calm Calm - N/A   Clear
11:53 PM 70.0 °F - 66.0 °F 87% 29.97 in 10.0 mi Calm Calm - N/A   Clear